BHUTAN-1 (43591 NORAD) Tracking and Keplerian Element Data

This shows tracking and keplerian element data for the satellite.

Feedback or suggestion? Click here.




ElementValue
Catalog43591
NameBHUTAN-1
Epoch Orbit5255
Epoch Day194.47969452
Epoch Year2019
RAAN217.602
Inclination51.6358
Eccentricity0.0004844
Argument of Perigee253.5146
Mean Anonmoly106.5316
Mean Motion15.62320007
Decay Rate8.598E-05
L11 43591U 98067PF 19194.47969452 .00008598 00000-0 10117-3 0 9995
L22 43591 51.6358 217.6020 0004844 253.5146 106.5316 15.62320007 52551

Live tracking and technical data element details for BHUTAN-1 (NORAD 43591). BHUTAN-1 can be tracked NOW for your location showing map with azimuth and elevation plus other details from your city location.

Track the satellite on the map from your city or location and see movement details for azimuth, elevation, latitude, longitude, range, height, and movement on the map or in text.







IsCatalogInMostPopularTable: catalog: 43591, numindb: 163
Update: records affected: 1



GetName: 43591 BHUTAN-1

Hit Count: updated at: Tue, 16 Jul 2019 14:41:32 GMT